sat.trackr.live / text

‹ back to catalog

STARLINK-35567

NORAD 66472 · 2025-262S

PAYLOAD ACTIVE UNKNOWN

§ Identity

Operator
Country
US
Launch date
2025-11-15
Launch site
AFETR
Launch vehicle
Mass (kg)
RCS (m²)

Purposes: comms

External: N2YO · Heavens-Above · Gunter

§ Orbital elements

Epoch: 2026-05-25T05:14:25.889280Z

Period
94.27 min
Inclination
43.0007°
Eccentricity
0.0001538
Mean motion
15.27587521 rev/d
Perigee alt
482.0 km
Apogee alt
484.1 km
Semi-major
6,861.2 km
B*
5.0818e-4
RAAN
223.7024°
Arg perigee
256.8477°
Mean anomaly
103.2203°
Rev number
3,061

§ Raw data

STARLINK-355671 66472U 25262S   26145.21835520  .00013751  00000+0  50818-3 0  99972 66472  43.0007 223.7024 0001538 256.8477 103.2203 15.27587521 30611

JSON: /api/v1/satellites/66472 · /tle

For live sub-satellite position, see the globe view (requires WebGL).

§ Visibility from observer

Set your observer location to see the next 7 days of passes ≥ 10°. The values pass through the URL so the page stays shareable.

No JS? Fill the form by hand. The geolocation button needs JavaScript.